Regional Weather Roundup
Issued by NWS

Home | Current Version | Previous Version | Text Only | Print | Product List | Glossary On
Versions: 1 2 3 4 5 6 7 8 9 10 11 12 13 14 15 16 17 18 19 20 21 22 23 24 25 26 27 28 29 30 31 32 33 34 35 36 37 38 39 40 41 42 43 44 45 46 47 48 49 50
689
ASUS44 KLIX 310810
RWRLA
LOUISIANA WEATHER ROUNDUP
NATIONAL WEATHER SERVICE NEW ORLEANS LA
300 AM CDT SUN AUG 31 2014

NOTE: "FAIR" INDICATES FEW OR NO CLOUDS BELOW 12,000 FEET WITH NO
      SIGNIFICANT WEATHER AND/OR OBSTRUCTIONS TO VISIBILITY.
      SKY/WX - SKY CONDITION AND SIGNIFICANT WEATHER.
      TMP - AIR TEMPERATURE.    DP   - DEWPOINT TEMPERATURE.
      RH  - RELATIVE HUMIDITY.  PRES - PRESSURE.
      HX  - HEAT INDEX.         WCI  - WIND CHILL INDEX.

*  THESE STATIONS ARE NOT NWS OR FAA STATIONS AND ARE NOT UNDER
   NWS QUALITY CONTROL.

LAZ040-048-061>063-065-066-069-310900-
SOUTHEAST LOUISIANA

CITY           SKY/WX    TMP DP  RH WIND       PRES   REMARKS
N.O. AUDUBON     N/A     77  77  99 MISG        N/A
N.O. INTL ARPT MOCLDY    76  73  91 CALM      30.03R
N.O. LAKEFRONT   N/A    N/A N/A N/A MISG      30.03S
N.O. DOWNTOWN* FAIR      84  72  65 SE5       30.03S
SLIDELL        PTCLDY    73  71  93 CALM      30.03S
BATON ROUGE    CLOUDY    73  71  93 NE5       30.03S
BOOTHVILLE     CLOUDY    83  79  88 SE7       30.03F
BELLE CHASSE   MOCLDY    78  73  84 SE5       30.02S
BOGALUSA*        N/A     74  70  88 CALM      30.05F
GALLIANO*      NOT AVBL
NEW ROADS*     FAIR      73  72  98 CALM      30.03R
GONZALES*      FAIR      73  73 100 CALM      30.02R
HAMMOND*       MOCLDY    73  72  94 CALM      30.05R
HOUMA*         PTCLDY    72  69  91 CALM      30.02S
PORT FOURCHON* SUNNY     81  77  89 E6        30.03F

$$

LAZ041-044-053-054-310900-
SOUTHWEST LOUISIANA

CITY           SKY/WX    TMP DP  RH WIND       PRES   REMARKS
LAKE CHARLES   CLOUDY    76  74  93 CALM      29.98S
LAFAYETTE      CLOUDY    75  73  93 CALM      30.01S
PATTERSON        N/A     73  73 100 SE5       30.04R
SALT POINT       N/A     81  77  88 SE6       30.00R
NEW IBERIA     CLOUDY    75  73  93 E6        30.02S
CHENAULT AIRPK CLOUDY    76  74  96 SE5       29.99S

$$

LAZ027-028-310900-
CENTRAL LOUISIANA

CITY           SKY/WX    TMP DP  RH WIND       PRES   REMARKS
FORT POLK      MOCLDY    73  73 100 S3        29.98F
ALEXANDRIA INT MOCLDY    74  72  93 CALM      29.98R
ALEXANDRIA     MOCLDY    75  72  90 CALM      30.00S

$$

LAZ001-002-310900-
NORTHWEST LOUISIANA

CITY           SKY/WX    TMP DP  RH WIND       PRES   REMARKS
SHREVEPORT     MOCLDY    75  72  90 S3        29.97S
BARKSDALE AFB  MOCLDY    74  73  98 SE5       29.98S
DTN SHREVEPORT MOCLDY    77  73  87 S6        29.98R

$$

LAZ014-016-310900-
NORTHEAST LOUISIANA

CITY           SKY/WX    TMP DP  RH WIND       PRES   REMARKS
MONROE         MOCLDY    73  72  96 S3        30.01R
TALLULAH       CLOUDY    74  71  91 S6        30.01S

$$




USA.gov is the U.S. government's official web portal to all federal, state and local government web resources and services.